Temp_Advection
nan nan nan nan nan nan nan nan nan nan nan nan nan nan nan nan nan nan nan nan nan nan nan nan nan nan nan nan nan nan nan nan nan nan nan nan nan nan nan nan nan nan nan
nan 0 0 0 0 0 0 0 0 -0 -0 -0 -0 -0 -0 -0 -0 -0 -0 -0 -0 0 -0 -0 -0 -0 -0 -0 0 0 -0 -0 -0 -0 -0 -0 -0 0 0 0 0 -0 nan
nan 0 0 0 0 -0 -0 -0 0 0 0 -0 -0 -0 0 0 -0 -0 -0 -0 -0 0 -0 -0 -0 -0 -0 -0 -0 -0 0 0 -0 -0 -0 -0 -0 -0 -0 0 0 -0 nan
nan 0 0 0 0 0 0 0 0 0 0 0 0 -0 -0 0 0 0 0 -0 -0 -0 -0 -0 -0 -0 -0 -0 -0 -0 -0 0 0 0 -0 -0 -0 -0 -0 -0 0 -0 nan
nan 0 0 0 0 0 0 0 0 0 0 0 0 0 -0 -0 0 0 0 0 0 -0 -0 -0 -0 -0 -0 -0 -0 -0 -0 -0 -0 -0 0 0 -0 -0 -0 -0 0 0 nan
nan 0 0 0 0 0 0 0 -0 -0 0 0 0 0 0 0 0 0 0 0 0 0 0 0 -0 -0 -0 -0 -0 -0 -0 -0 -0 -0 -0 0 0 -0 -0 -0 0 0 nan
nan 0 0 0 0 -0 -0 -0 -0 0 0 0 0 0 -0 -0 0 0 0 0 0 0 0 0 0 0 0 0 0 -0 -0 -0 0 0 -0 -0 -0 -0 -0 -0 -0 0 nan
nan 0 0 0 -0 -0 -0 -0 -0 -0 -0 0 0 0 0 0 -0 0 0 0 0 0 0 0 0 0 0 0 0 0 0 0 0 0 0 0 -0 -0 -0 -0 -0 -0 nan
nan 0 0 -0 -0 -0 -0 -0 0 0 -0 -0 -0 -0 -0 -0 -0 -0 -0 -0 -0 -0 0 0 -0 -0 -0 -0 -0 -0 -0 -0 -0 0 0 -0 0 -0 -0 -0 -0 -0 nan
nan 0 0 -0 -0 -0 -0 0 0 0 -0 -0 -0 -0 -0 -0 -0 -0 -0 -0 -0 -0 -0 -0 -0 -0 -0 -0 -0 -0 -0 -0 -0 -0 -0 0 0 -0 -0 -0 -0 -0 nan
nan 0 -0 -0 -0 0 0 0 0 -0 -0 -0 -0 -0 -0 -0 0 -0 -0 -0 -0 -0 -0 -0 -0 -0 -0 -0 -0 -0 -0 -0 -0 -0 -0 0 0 0 -0 -0 -0 -0 nan
nan 0 -0 0 0 0 0 0 -0 -0 -0 -0 -0 -0 -0 -0 -0 -0 -0 -0 -0 -0 -0 -0 -0 -0 -0 -0 -0 -0 -0 -0 -0 -0 -0 -0 0 0 -0 -0 -0 -0 nan
nan 0 0 0 0 0 0 0 -0 -0 -0 -0 -0 -0 0 -0 -0 -0 -0 -0 -0 -0 -0 -0 -0 -0 -0 0 -0 -0 -0 -0 0 -0 -0 0 -0 -0 -0 -0 -0 -0 nan
nan 0 0 0 0 0 0 0 0 -0 -0 -0 -0 -0 -0 -0 -0 -0 0 0 0 -0 0 0 0 0 -0 -0 -0 -0 -0 -0 0 -0 -0 0 0 0 0 -0 0 -0 nan
nan 0 0 0 0 0 0 0 0 0 -0 -0 -0 -0 -0 0 -0 -0 0 -0 0 -0 -0 -0 0 0 -0 -0 -0 0 -0 0 -0 -0 -0 0 0 -0 0 0 -0 0 nan
nan 0 0 0 0 0 0 0 0 0 0 -0 -0 -0 -0 -0 -0 0 -0 0 -0 -0 -0 -0 0 -0 -0 -0 -0 -0 0 -0 0 -0 -0 -0 -0 -0 -0 -0 -0 0 nan
nan 0 0 0 0 0 0 0 0 -0 -0 -0 -0 -0 -0 -0 -0 -0 -0 -0 -0 -0 0 0 -0 -0 -0 -0 0 0 -0 -0 -0 -0 -0 -0 -0 -0 -0 -0 -0 -0 nan
nan 0 0 0 0 0 0 0 0 -0 -0 0 -0 -0 -0 -0 -0 -0 -0 -0 -0 -0 -0 0 0 -0 -0 -0 -0 -0 -0 -0 -0 -0 -0 -0 -0 -0 -0 -0 -0 -0 nan
nan 0 0 0 0 0 0 0 0 0 -0 0 0 0 0 0 -0 -0 -0 -0 -0 -0 -0 -0 -0 -0 0 -0 -0 0 -0 0 -0 -0 -0 -0 -0 -0 -0 -0 -0 -0 nan
nan 0 0 0 0 0 0 0 0 -0 -0 -0 0 0 0 0 -0 -0 -0 -0 -0 -0 -0 -0 -0 -0 0 0 0 -0 0 0 -0 0 -0 -0 -0 -0 -0 -0 -0 -0 nan
nan -0 0 0 0 0 0 0 0 -0 -0 -0 -0 0 0 0 -0 -0 -0 -0 -0 -0 -0 -0 -0 -0 -0 0 0 0 -0 -0 0 0 0 -0 -0 -0 -0 -0 -0 -0 nan
nan 0 0 -0 0 0 0 0 0 0 0 0 -0 0 0 0 -0 -0 0 -0 -0 -0 -0 -0 -0 -0 -0 -0 0 0 -0 0 0 0 0 0 -0 -0 -0 0 -0 0 nan
nan -0 0 0 0 0 0 0 0 0 -0 -0 0 0 0 0 -0 -0 0 -0 -0 -0 -0 -0 -0 0 -0 -0 -0 0 -0 -0 0 0 -0 0 0 0 -0 -0 0 0 nan
nan 0 0 0 0 0 0 0 0 0 -0 -0 0 0 0 -0 -0 0 0 -0 -0 -0 -0 -0 -0 -0 0 -0 -0 0 0 0 -0 -0 -0 -0 -0 -0 -0 -0 -0 -0 nan
nan 0 0 0 0 0 0 0 0 0 -0 0 0 0 0 -0 -0 0 0 -0 -0 -0 0 -0 -0 -0 0 0 0 -0 -0 0 0 0 -1 -0 0 -0 -1 -0 -0 -0 nan
nan nan nan nan nan nan nan nan nan nan nan nan nan nan nan nan nan nan nan nan nan nan nan nan nan nan nan nan nan nan nan nan nan nan nan nan nan nan nan nan nan nan nan
Wind_Speed
12 11 12 10 8 6 6 5 4 3 3 3 3 4 5 6 6 7 6 6 5 5 5 4 4 4 6 6 6 5 5 5 5 4 4 3 3 2 3 3 3 3 8
15 11 12 10 8 8 6 4 3 2 3 2 2 3 4 4 5 5 5 5 5 4 5 5 5 5 5 5 5 6 6 5 5 5 4 3 3 3 3 2 2 5 7
14 12 13 11 10 8 6 4 4 3 2 1 1 0 1 3 4 5 5 5 6 6 6 6 6 6 6 6 5 5 6 6 5 5 5 6 6 5 5 4 4 5 6
18 15 13 13 11 8 6 5 4 3 2 3 3 4 5 6 7 7 7 6 7 7 7 7 8 8 8 8 7 7 6 7 6 5 4 4 3 9 7 7 7 7 8
20 18 15 12 10 8 6 5 4 3 4 5 5 6 7 8 8 8 8 9 9 8 8 8 8 8 8 8 8 8 8 7 8 7 3 6 3 9 10 9 9 8 8
19 15 14 12 10 7 6 4 4 5 6 6 7 8 9 9 10 10 10 10 10 10 10 10 10 10 9 9 9 9 9 8 7 8 8 9 7 10 11 11 10 9 10
14 14 14 11 8 7 5 5 5 6 7 8 8 9 9 10 10 11 11 11 12 12 12 12 13 12 12 12 11 11 11 9 7 6 9 9 12 12 13 13 13 13 13
17 15 13 10 7 6 5 5 6 7 7 7 8 8 8 8 9 9 10 10 11 11 11 12 12 13 13 13 13 13 13 12 9 8 10 9 15 15 13 13 12 13 12
17 14 12 9 7 6 6 5 5 5 6 6 7 8 8 8 9 9 9 10 10 10 10 11 11 11 11 11 11 10 10 10 6 6 7 8 13 15 14 13 12 10 10
17 15 12 9 7 5 5 4 4 4 5 6 7 7 8 9 8 9 9 8 8 8 8 8 8 8 8 8 8 8 7 5 4 4 5 12 13 9 7 9 10 12 12
17 15 13 10 7 5 3 2 3 3 5 6 7 7 8 6 7 7 7 7 7 7 7 7 7 7 7 8 9 8 5 3 3 3 8 13 11 8 11 12 13 15 16
17 16 12 10 7 5 2 1 2 3 5 6 7 8 7 7 6 6 7 6 6 6 6 6 6 6 6 4 8 7 4 4 3 2 12 11 9 10 12 14 14 12 11
17 15 12 10 7 5 3 1 1 3 5 6 7 7 6 6 4 5 4 5 5 5 5 5 7 5 5 4 4 4 5 3 2 9 8 4 3 6 7 6 4 4 6
18 15 12 10 8 6 4 2 1 2 5 5 8 7 5 5 4 3 3 4 4 5 5 5 5 6 6 6 4 2 3 1 7 4 4 3 2 4 4 2 1 2 5
17 15 12 10 8 6 4 2 1 2 4 6 7 7 5 4 3 3 3 3 4 5 5 5 5 5 5 4 4 3 2 5 4 4 2 2 3 5 6 7 5 5 3
17 14 12 10 8 6 4 2 1 2 5 5 6 6 5 3 2 2 3 4 4 5 5 6 5 5 5 5 4 3 3 1 2 2 1 1 1 2 3 3 3 3 6
16 14 12 10 8 6 3 2 3 3 5 5 6 6 4 3 2 3 4 4 5 5 5 5 6 5 4 5 3 2 2 2 3 3 2 3 2 2 3 4 4 4 5
15 14 12 10 8 5 3 3 3 4 5 5 5 5 4 3 3 3 4 4 4 4 5 4 4 4 3 5 4 1 1 0 2 2 2 3 3 5 5 7 7 7 7
15 15 12 10 7 5 4 4 4 4 5 6 5 6 4 3 3 3 3 4 4 4 5 5 4 3 2 7 4 2 1 3 4 5 6 6 6 7 10 8 9 9 10
15 14 12 9 7 6 4 5 5 4 5 6 6 6 5 4 3 3 3 4 4 4 5 5 5 4 3 5 6 7 5 6 7 8 9 10 10 10 11 10 11 11 11
16 15 12 9 7 7 4 3 3 2 6 7 6 6 5 4 4 4 4 4 4 5 5 5 5 5 6 6 6 8 12 11 10 11 12 12 13 13 13 12 12 12 14
16 14 13 10 8 7 5 5 5 4 6 6 7 6 5 5 5 5 5 5 6 6 6 6 6 6 7 6 4 6 5 8 13 12 11 12 15 15 15 13 14 14 14
17 15 14 11 10 8 6 5 5 5 6 6 6 6 6 6 7 7 7 8 8 7 7 7 8 7 7 8 6 5 4 4 8 11 15 14 15 14 15 17 15 17 15
18 16 15 14 12 9 6 5 5 5 5 6 7 8 9 8 9 9 9 9 10 9 9 9 9 9 9 8 10 8 10 13 5 9 9 14 17 18 18 18 20 19 17
19 17 17 16 15 11 8 7 6 7 6 7 7 9 10 11 11 11 11 12 12 11 11 11 11 11 11 11 11 12 13 13 14 13 16 12 14 18 20 19 20 20 19
20 19 19 19 17 14 11 8 9 8 8 8 9 10 11 11 12 12 13 13 13 13 14 14 14 14 14 14 14 15 15 14 12 12 15 17 18 21 21 23 22 21 21
Wind_Direction
153 172 162 160 155 153 146 142 135 103 81 70 53 40 38 34 26 22 22 26 29 27 13 4 358 351 356 359 357 6 13 18 19 17 24 34 34 22 35 48 61 343 331
145 173 163 155 153 160 164 160 142 118 103 97 66 44 27 16 3 355 350 351 350 346 344 344 345 347 348 343 336 335 339 342 357 5 3 3 4 330 322 333 329 311 340
144 157 160 162 166 169 167 164 155 152 146 155 146 66 323 326 326 324 320 321 320 317 320 322 323 328 329 329 329 328 311 316 320 345 1 39 305 319 313 310 304 320 335
149 151 157 160 163 168 172 168 177 197 216 245 276 293 301 308 309 306 310 314 309 309 312 313 314 317 321 322 322 322 320 306 311 321 22 301 300 304 305 306 313 316 324
143 158 159 162 164 166 171 181 201 237 269 286 293 294 297 301 303 301 296 293 291 295 305 311 310 313 316 320 322 323 322 322 325 323 297 276 281 284 301 307 304 308 300
159 163 160 168 171 172 186 210 238 263 284 291 292 292 294 295 293 291 290 289 288 289 290 290 295 300 302 303 305 306 308 314 327 339 318 302 308 284 297 298 298 298 296
146 171 174 174 177 190 208 233 261 278 285 288 287 287 288 288 288 288 288 287 286 285 286 287 288 292 293 292 291 292 296 299 307 309 295 292 289 290 300 299 298 299 299
151 169 175 180 190 204 228 254 271 280 285 288 292 295 296 297 298 295 291 289 288 288 288 289 291 291 290 292 290 288 289 290 292 301 298 315 296 295 302 301 298 297 302
167 171 176 185 197 221 240 258 275 285 293 298 302 304 305 304 303 300 295 292 292 292 292 293 292 293 296 294 293 297 301 308 326 287 294 279 277 290 297 298 296 301 306
171 176 180 186 196 227 238 261 280 292 300 305 311 315 318 311 306 298 297 299 295 294 295 297 299 300 303 306 307 309 317 357 14 333 310 268 279 295 301 297 297 300 299
173 178 182 186 198 214 240 255 278 302 308 316 323 328 323 324 312 312 307 301 301 303 303 305 308 312 315 322 321 313 329 321 314 292 273 269 269 274 288 295 298 304 306
175 178 181 186 192 196 202 245 315 323 329 330 331 331 328 320 318 312 315 320 316 320 321 328 330 327 352 324 321 345 342 310 312 310 263 271 265 277 290 299 311 316 318
177 177 179 183 180 176 177 164 317 324 332 332 333 335 335 333 340 354 347 345 351 347 354 357 357 334 323 316 326 333 330 347 253 239 278 281 302 317 320 332 339 346 339
176 177 177 176 174 170 170 178 325 335 336 340 338 342 347 342 342 0 351 351 346 349 351 348 354 339 345 338 325 349 0 349 265 272 311 256 196 148 131 99 162 291 336
179 177 176 175 171 171 175 191 272 336 337 338 341 351 353 348 352 11 354 2 354 359 352 351 345 348 345 352 5 22 214 252 56 325 357 192 215 232 240 235 257 243 290
180 179 177 177 177 175 179 211 279 320 339 343 347 352 354 354 359 1 13 357 349 350 354 353 352 358 6 28 246 249 242 113 138 284 260 24 9 309 303 305 285 288 274
178 182 181 182 182 181 184 259 304 334 339 342 345 352 352 348 356 353 343 338 343 351 0 3 7 25 25 271 313 279 115 76 32 342 344 0 0 325 322 317 312 294 276
179 182 187 187 188 191 206 269 303 318 335 338 340 340 337 338 339 330 328 336 342 347 357 2 0 28 342 337 349 345 105 7 237 256 279 285 302 315 316 312 308 308 304
181 188 189 192 199 209 237 271 291 305 330 329 330 329 329 328 322 314 322 334 336 342 350 349 347 30 338 351 341 304 143 231 260 274 281 285 295 303 311 306 307 306 303
182 189 192 197 210 226 248 275 286 304 321 326 324 323 319 322 317 316 326 327 324 336 335 338 341 341 326 324 331 314 304 269 268 269 282 289 290 295 302 300 305 307 302
192 193 196 203 218 230 244 273 283 292 321 322 324 316 309 313 315 316 313 311 320 326 329 332 331 329 319 318 328 309 311 296 275 273 274 279 287 290 292 294 297 302 302
198 198 203 211 219 225 243 258 248 287 306 307 313 305 304 305 304 301 299 310 315 319 324 325 324 313 305 309 291 281 310 276 296 294 273 277 282 286 288 288 291 297 295
203 205 210 215 219 229 247 263 266 288 299 309 304 302 299 293 297 296 297 304 307 310 313 313 312 307 299 304 295 272 310 279 297 273 295 288 286 286 288 293 289 295 291
207 210 213 217 224 232 248 262 271 281 275 298 301 302 297 295 295 294 296 297 297 302 305 306 302 301 301 298 301 287 268 271 291 303 286 302 299 288 287 291 293 293 291
211 215 217 221 227 235 247 261 271 270 280 292 301 300 296 298 294 294 295 292 293 296 297 295 298 298 297 295 293 289 292 284 278 266 283 281 288 301 292 286 285 288 287
215 218 219 224 230 236 248 261 265 267 277 286 296 298 298 299 301 296 291 288 290 291 294 295 295 295 295 293 290 288 286 278 275 270 275 283 282 280 279 287 288 286 286
Height
1533 1531 1533 1535 1537 1539 1540 1541 1541 1542 1543 1543 1543 1543 1543 1543 1542 1542 1542 1542 1542 1541 1541 1540 1540 1540 1539 1539 1538 1538 1538 1537 1537 1536 1536 1536 1535 1535 1535 1535 1535 1534 1534
1531 1532 1533 1535 1538 1539 1540 1541 1542 1542 1543 1543 1544 1544 1544 1544 1543 1543 1542 1542 1542 1541 1541 1541 1540 1540 1539 1539 1539 1538 1538 1537 1537 1537 1536 1536 1536 1535 1535 1535 1535 1534 1533
1530 1531 1533 1536 1538 1539 1540 1541 1542 1542 1543 1543 1543 1544 1544 1544 1543 1543 1542 1542 1542 1541 1540 1540 1540 1539 1539 1539 1539 1538 1538 1538 1538 1537 1537 1537 1538 1536 1535 1534 1534 1534 1533
1528 1532 1533 1536 1538 1539 1541 1541 1542 1542 1543 1543 1543 1544 1544 1544 1543 1542 1542 1541 1541 1540 1540 1539 1539 1539 1539 1538 1538 1538 1538 1538 1538 1538 1537 1540 1539 1535 1535 1534 1534 1533 1533
1528 1531 1533 1536 1538 1539 1541 1541 1542 1542 1543 1543 1543 1543 1543 1542 1542 1541 1541 1540 1540 1539 1539 1539 1538 1538 1538 1538 1538 1537 1537 1537 1537 1537 1537 1537 1537 1535 1534 1534 1533 1533 1532
1529 1531 1534 1536 1537 1539 1540 1541 1542 1542 1543 1543 1543 1542 1541 1541 1540 1540 1539 1539 1539 1538 1538 1537 1537 1537 1536 1536 1536 1536 1536 1536 1536 1537 1537 1536 1536 1535 1534 1533 1532 1532 1531
1529 1531 1533 1536 1537 1539 1540 1541 1541 1542 1542 1542 1541 1541 1540 1539 1539 1538 1538 1537 1537 1536 1536 1536 1535 1535 1535 1534 1534 1534 1535 1535 1535 1537 1536 1536 1534 1533 1533 1532 1531 1531 1530
1529 1530 1533 1536 1537 1539 1540 1540 1541 1541 1541 1541 1540 1540 1539 1539 1538 1537 1537 1536 1536 1535 1535 1534 1534 1533 1533 1533 1532 1532 1532 1532 1534 1536 1535 1535 1533 1531 1530 1529 1529 1528 1528
1528 1530 1533 1535 1537 1538 1539 1540 1540 1540 1540 1540 1539 1539 1538 1537 1537 1536 1535 1535 1534 1534 1533 1533 1532 1532 1531 1531 1530 1530 1530 1531 1531 1534 1533 1533 1530 1530 1529 1528 1527 1526 1526
1527 1530 1533 1535 1537 1538 1538 1539 1539 1540 1540 1539 1539 1538 1537 1537 1536 1535 1534 1534 1533 1533 1532 1531 1531 1530 1530 1530 1529 1529 1529 1530 1531 1532 1533 1529 1529 1528 1527 1526 1525 1525 1524
1527 1530 1532 1534 1536 1537 1538 1539 1539 1539 1539 1538 1538 1537 1536 1536 1534 1533 1533 1532 1532 1531 1531 1530 1530 1529 1529 1529 1528 1528 1528 1530 1530 1530 1529 1526 1526 1526 1525 1524 1524 1523 1522
1526 1529 1532 1534 1535 1537 1538 1538 1539 1539 1538 1538 1537 1537 1536 1535 1534 1533 1532 1531 1531 1531 1530 1530 1529 1529 1528 1530 1529 1528 1528 1528 1528 1527 1523 1524 1523 1523 1523 1522 1522 1521 1520
1525 1528 1531 1533 1534 1536 1537 1538 1538 1538 1538 1537 1537 1536 1535 1534 1533 1533 1533 1532 1531 1530 1530 1529 1530 1529 1527 1527 1528 1528 1526 1527 1526 1522 1521 1521 1522 1522 1522 1522 1521 1520 1520
1525 1527 1530 1532 1534 1535 1536 1537 1538 1538 1537 1537 1536 1534 1534 1533 1533 1532 1532 1531 1531 1530 1530 1529 1528 1528 1527 1527 1526 1526 1526 1526 1522 1521 1520 1520 1521 1521 1521 1521 1520 1520 1519
1524 1527 1529 1531 1533 1534 1536 1537 1538 1537 1537 1536 1535 1533 1533 1532 1532 1532 1531 1531 1531 1530 1529 1528 1527 1527 1527 1526 1526 1526 1524 1522 1522 1520 1520 1520 1520 1520 1520 1520 1519 1519 1519
1524 1526 1528 1530 1532 1534 1535 1536 1536 1536 1536 1535 1534 1533 1532 1532 1532 1532 1531 1530 1530 1530 1528 1528 1526 1526 1526 1525 1524 1523 1522 1521 1522 1521 1520 1520 1520 1520 1519 1519 1518 1518 1518
1523 1526 1527 1530 1532 1533 1534 1535 1535 1535 1535 1534 1533 1532 1532 1531 1531 1531 1531 1530 1529 1529 1528 1527 1526 1526 1526 1523 1522 1522 1522 1522 1522 1521 1521 1520 1520 1520 1519 1518 1517 1517 1516
1522 1525 1527 1529 1531 1532 1532 1534 1534 1534 1534 1533 1533 1532 1532 1531 1531 1531 1530 1529 1529 1529 1528 1527 1527 1526 1526 1522 1521 1521 1521 1522 1522 1521 1520 1520 1519 1518 1518 1517 1516 1515 1515
1521 1523 1526 1528 1531 1531 1531 1533 1533 1533 1532 1532 1532 1531 1531 1531 1531 1531 1530 1529 1529 1528 1528 1527 1526 1525 1525 1522 1521 1520 1520 1521 1521 1520 1519 1519 1518 1518 1516 1516 1515 1514 1513
1520 1522 1524 1527 1529 1530 1530 1531 1532 1531 1532 1531 1531 1531 1531 1530 1530 1530 1529 1529 1529 1528 1527 1527 1526 1525 1524 1522 1521 1520 1519 1519 1519 1518 1518 1517 1516 1516 1515 1514 1513 1512 1511
1519 1521 1523 1526 1527 1529 1529 1530 1531 1531 1531 1530 1530 1530 1529 1529 1529 1529 1528 1528 1528 1527 1527 1526 1525 1524 1523 1522 1520 1521 1519 1518 1517 1516 1516 1516 1514 1514 1513 1512 1511 1510 1508
1517 1519 1522 1524 1526 1527 1528 1529 1530 1530 1530 1530 1529 1529 1528 1528 1528 1527 1528 1528 1527 1526 1526 1525 1524 1523 1522 1521 1520 1520 1520 1519 1516 1515 1514 1514 1512 1511 1510 1510 1509 1508 1506
1515 1517 1520 1522 1524 1526 1526 1527 1529 1529 1529 1528 1528 1528 1527 1527 1527 1527 1527 1526 1526 1525 1524 1524 1523 1523 1522 1521 1520 1521 1520 1519 1516 1514 1513 1511 1510 1508 1507 1506 1506 1505 1503
1513 1515 1518 1520 1523 1524 1525 1526 1527 1527 1527 1526 1527 1526 1526 1526 1526 1526 1525 1525 1524 1523 1523 1522 1522 1521 1520 1520 1519 1518 1519 1518 1517 1514 1511 1509 1508 1506 1505 1503 1501 1500 1499
1510 1512 1515 1518 1521 1523 1524 1524 1525 1525 1525 1525 1525 1525 1525 1524 1524 1524 1524 1523 1522 1521 1521 1521 1520 1520 1519 1518 1517 1516 1516 1515 1514 1513 1510 1510 1506 1504 1501 1500 1498 1497 1495
1506 1510 1513 1516 1518 1520 1522 1522 1523 1523 1523 1523 1523 1523 1523 1522 1521 1521 1521 1521 1520 1519 1518 1518 1518 1517 1517 1516 1515 1513 1513 1513 1512 1511 1508 1505 1504 1501 1498 1495 1494 1493 1491